ANE2005 LESO-LPPR

Flight info

Callsign ANE2005
Flight time N/A
Altitude 33000
Route BLV1A BLV L14 NEA N976 ZMR L155 ADORO/N0421F320 DCT ASPOR ASPOR3T
Aircraft CRJX/M-SDFGIRWY/S

Departure

Time 2026-04-14 16:30
Airport San Sebastián Airport (LESO)

Arrival

Time N/A
Airport Francisco de Sá Carneiro Airport (LPPR)
Time Latitude Longitude Altitude Speed Heading
2026-04-14 16:28 43.36170 -1.78488 21 ft 3 kts 217°
2026-04-14 16:29 43.36153 -1.78506 21 ft 0 kts 217°
2026-04-14 16:29 43.36147 -1.78513 21 ft 2 kts 217°
2026-04-14 16:29 43.36022 -1.78654 22 ft 59 kts 221°
2026-04-14 16:30 43.35505 -1.79220 16 ft 129 kts 218°
2026-04-14 16:30 43.34693 -1.80131 254 ft 162 kts 218°
2026-04-14 16:30 43.33761 -1.81064 1023 ft 169 kts 216°
2026-04-14 16:30 43.32810 -1.81967 2094 ft 167 kts 219°
2026-04-14 16:31 43.31835 -1.82920 2813 ft 175 kts 220°
2026-04-14 16:31 43.30860 -1.83943 3607 ft 176 kts 222°
2026-04-14 16:31 43.29917 -1.84978 4423 ft 171 kts 224°
2026-04-14 16:31 43.28997 -1.86025 4935 ft 178 kts 225°
2026-04-14 16:32 43.27946 -1.87285 4760 ft 231 kts 225°
2026-04-14 16:32 43.26805 -1.88706 5117 ft 246 kts 226°
2026-04-14 16:32 43.26029 -1.89699 6191 ft 214 kts 228°
2026-04-14 16:33 43.25072 -1.90988 7663 ft 182 kts 231°
2026-04-14 16:33 43.24267 -1.92128 7607 ft 218 kts 236°
2026-04-14 16:34 43.24201 -1.92236 7577 ft 222 kts 236°
2026-04-14 16:35 43.23289 -1.94194 7545 ft 253 kts 249°
2026-04-14 16:35 43.22780 -1.96246 9147 ft 197 kts 265°
2026-04-14 16:36 43.22500 -1.98035 10247 ft 189 kts 263°
2026-04-14 16:36 43.22181 -1.99898 10435 ft 217 kts 263°
2026-04-14 16:36 43.21806 -2.02056 10643 ft 240 kts 262°
2026-04-14 16:36 43.21392 -2.04196 11663 ft 219 kts 260°
2026-04-14 16:37 43.20948 -2.06077 12681 ft 205 kts 258°
2026-04-14 16:37 43.20431 -2.07986 12918 ft 227 kts 256°
2026-04-14 16:37 43.19825 -2.10154 12945 ft 255 kts 255°
2026-04-14 16:37 43.19179 -2.12394 13815 ft 242 kts 255°
2026-04-14 16:38 43.18599 -2.14404 14826 ft 219 kts 257°
2026-04-14 16:38 43.18111 -2.16421 15126 ft 233 kts 260°
2026-04-14 16:38 43.17620 -2.18709 14999 ft 266 kts 260°
2026-04-14 16:38 43.17055 -2.21167 15538 ft 266 kts 258°
2026-04-14 16:39 43.16476 -2.23409 16754 ft 238 kts 256°
2026-04-14 16:39 43.15876 -2.25472 17514 ft 234 kts 254°
2026-04-14 16:39 43.15357 -2.27179 17470 ft 257 kts 253°
2026-04-14 16:40 43.14918 -2.28603 17327 ft 277 kts 252°
2026-04-14 16:40 43.14144 -2.31051 17938 ft 272 kts 251°
2026-04-14 16:41 43.13403 -2.33235 19259 ft 235 kts 251°
2026-04-14 16:41 43.12702 -2.35199 19858 ft 232 kts 251°
2026-04-14 16:41 43.11965 -2.37309 19550 ft 268 kts 251°
2026-04-14 16:41 43.11155 -2.39773 19465 ft 291 kts 251°
2026-04-14 16:42 43.10348 -2.42197 20479 ft 262 kts 251°
2026-04-14 16:42 43.09605 -2.44306 21603 ft 235 kts 251°
2026-04-14 16:42 43.08847 -2.46339 21716 ft 251 kts 250°
2026-04-14 16:42 43.07950 -2.48618 21185 ft 292 kts 247°
2026-04-14 16:43 43.06935 -2.51064 21429 ft 297 kts 245°
2026-04-14 16:43 43.05918 -2.53350 22698 ft 262 kts 245°
2026-04-14 16:43 43.04961 -2.55381 23460 ft 253 kts 245°
2026-04-14 16:43 43.03958 -2.57536 23024 ft 287 kts 245°
2026-04-14 16:44 43.02852 -2.59990 22544 ft 321 kts 245°
2026-04-14 16:44 43.01712 -2.62558 23325 ft 303 kts 245°
2026-04-14 16:44 43.00673 -2.64850 24609 ft 267 kts 246°
2026-04-14 16:45 42.98723 -2.69218 24955 ft 291 kts 240°
2026-04-14 16:45 42.97888 -2.71766 25309 ft 288 kts 246°
2026-04-14 16:45 42.97307 -2.74201 26439 ft 257 kts 250°
2026-04-14 16:45 42.96922 -2.76503 27180 ft 245 kts 253°
2026-04-14 16:46 42.96629 -2.78882 26937 ft 267 kts 256°
2026-04-14 16:46 42.96348 -2.81568 26392 ft 301 kts 257°
2026-04-14 16:46 42.96082 -2.84439 26714 ft 299 kts 258°
2026-04-14 16:46 42.95874 -2.87125 27845 ft 269 kts 258°
2026-04-14 16:47 42.95730 -2.89551 28634 ft 255 kts 258°
2026-04-14 16:47 42.95607 -2.92038 28391 ft 274 kts 259°
2026-04-14 16:47 42.95474 -2.94800 27781 ft 307 kts 260°
2026-04-14 16:47 42.95349 -2.97727 27952 ft 309 kts 261°
2026-04-14 16:48 42.95276 -3.00535 29033 ft 281 kts 262°
2026-04-14 16:48 42.95287 -3.03110 29851 ft 266 kts 263°
2026-04-14 16:48 42.95363 -3.05693 29691 ft 283 kts 265°
2026-04-14 16:48 42.95467 -3.08533 29006 ft 314 kts 266°
2026-04-14 16:49 42.95719 -3.14491 30068 ft 295 kts 267°
2026-04-14 16:49 42.95887 -3.17184 30908 ft 277 kts 267°
2026-04-14 16:49 42.96084 -3.19829 30890 ft 287 kts 269°
2026-04-14 16:50 42.96311 -3.22641 30318 ft 316 kts 269°
2026-04-14 16:50 42.96569 -3.25718 30086 ft 331 kts 270°
2026-04-14 16:50 42.96606 -3.28700 29392 ft 280 kts 221°
2026-04-14 16:50 42.94752 -3.28192 24485 ft 420 kts 151°
2026-04-14 16:51 42.92341 -3.26528 26584 ft 308 kts 167°
2026-04-14 16:51 42.90794 -3.26281 31191 ft 178 kts 187°
2026-04-14 16:51 42.89976 -3.26437 32033 ft 170 kts 194°
2026-04-14 16:51 42.88674 -3.26876 30714 ft 230 kts 198°
2026-04-14 16:52 42.87400 -3.27535 30491 ft 239 kts 204°
2026-04-14 16:52 42.87361 -3.27559 30523 ft 238 kts 204°
2026-04-14 16:52 42.85912 -3.28525 30965 ft 225 kts 206°
2026-04-14 16:53 42.84572 -3.29576 31239 ft 219 kts 210°
2026-04-14 16:53 42.83262 -3.30714 31072 ft 232 kts 210°
2026-04-14 16:53 42.81805 -3.31785 29910 ft 266 kts 210°
2026-04-14 16:53 42.80436 -3.33226 30503 ft 244 kts 216°
2026-04-14 16:54 42.79035 -3.34917 26965 ft 314 kts 226°
2026-04-14 16:54 42.77480 -3.37837 21220 ft 436 kts 236°
2026-04-14 16:54 42.75978 -3.41545 19508 ft 428 kts 242°
2026-04-14 16:54 42.74764 -3.44730 21091 ft 357 kts 241°
2026-04-14 16:55 42.73640 -3.47716 18963 ft 358 kts 242°
2026-04-14 16:55 42.72114 -3.50744 14503 ft 422 kts 221°
2026-04-14 16:55 42.69933 -3.53251 13567 ft 398 kts 213°
2026-04-14 16:55 42.67577 -3.55162 12594 ft 390 kts 213°
2026-04-14 16:56 42.65265 -3.57057 11198 ft 395 kts 213°
2026-04-14 16:56 42.62948 -3.59038 10223 ft 388 kts 218°
2026-04-14 16:56 42.60886 -3.61353 9181 ft 380 kts 224°
2026-04-14 16:56 42.58915 -3.63728 8277 ft 373 kts 223°
2026-04-14 16:57 42.57617 -3.65220 7746 ft 365 kts 222°
2026-04-14 16:57 42.55692 -3.67387 11177 ft 143 kts 224°
2026-04-14 16:57 42.55109 -3.67966 11965 ft 81 kts 226°
2026-04-14 16:57 42.54805 -3.68244 10190 ft 90 kts 226°
2026-04-14 16:58 42.53317 -3.70117 4719 ft 353 kts 227°
2026-04-14 16:58 42.52206 -3.71637 4954 ft 310 kts 226°
2026-04-14 16:58 42.50957 -3.73514 4586 ft 233 kts 231°
2026-04-14 16:58 42.49933 -3.74977 3758 ft 200 kts 231°
2026-04-14 16:59 42.49099 -3.76257 3233 ft 171 kts 232°
2026-04-14 16:59 42.48792 -3.76810 3083 ft 157 kts 235°
2026-04-14 16:59 42.48254 -3.77949 2880 ft 125 kts 240°
2026-04-14 16:59 42.48088 -3.78300 2870 ft 0 kts 281°